DECAYED

CZ-6A DEB, 54351 (Decayed)

Orbit data source: Space-Track

CZ-6A DEB, 54351 was space debris in SSO originally from a launch on Fri, 11 Nov 2022 UTC launched from the Taiyaun Space Center, China (TSC). Debris objects in space refer to the collection of defunct objects orbiting the Earth. Examples of debris include non-operational satellites, rocket bodies, and fragments generated from explosions, collisions, or faulty payload assembly.

Not visible in the next 10 days
Identifier
54351, 2022-151CW
Orbit
Decayed
Country
Flag of CNCN / PRC
Related business
Manufacturer
SAST
Mission
Decayed spacecraft
Bus & Motor
Unknown
Mass
Unknown
Launch date (UTC)
2022-11-11 (3 years ago)
Launch vehicle
Unknown
Launch site
Taiyaun Space Center, China (TSC)
Object type
Payload
Rocket body
Debris
Shape & HBR
Unknown shape, 0.1 m
Radar Cross Section
Small (<0.1 m²)

Expand to show TLE details & history
Last TLE update: 7 months ago

TLE from 7 months ago
0 CZ-6A DEB
1 54351U 22151CW  25271.69144235  .05928344  00000-0  67762-1 0  9994
2 54351  99.0192 329.6669 0026142 237.8532 122.0182 15.57409850149651
Epoch: 2025-09-28T16:35Z
TLE epoch observation values (Epoch: 2025-09-28T16:35:40.619Z)
Latitude
0.00004°
Longitude
73.04177°
Altitude
407.669 km
Speed
7.661 km/s
True Right ascension
21h 58m 40s
True Declination
0° 00' 00"
Sunlit
Object was in full shadow at epoch
Visualization orbit readout
Latitude
Unknown
Longitude
Unknown
Altitude
Unknown
Speed
Unknown
Apparent Right ascension
Unknown
Apparent Declination
Unknown
Sunlit
N/A
Visualization observer readout
Local Sidereal Time
02:47:50
Azimuth
Unknown
Elevation
Unknown
Doppler factor
Unknown
Orbital elements
Apogee altitude
409.849 km
Perigee altitude
374.451 km
Semi-major axis
6,770.287 km
Eccentricity
0.00261
Inclination
99.0192°
RAAN
329.6669°
Arg. of periapsis
237.8532°
True anomaly
122.27176°
Mean anomaly
122.0182°
Eccentric anomaly
122.14502°
Mean motion
3.89612 °/min
Orbital period
92.4 mins
BSTAR
0.067762
Loading maneuver chart data...
Computing Atmospheric mass density...
Loading historical data...
Loading historical data...
Loading historical data...
Loading historical data...
Loading historical data...
Loading historical data...
Loading historical data...

Documentation

Showing up to 5 results
|